owner,sensor,date,latitude,longitude,vertical_datum,wind_speed,wind_to_direction,wind_speed_of_gust,qcFlag 
COMPS,ioos:station:USF.COMPS:C10:1,2019-05-10T16:35:00,27.1690,-82.9260,3.0,5.05,145.75,6.26,'11111222,11111222,11111222' 
COMPS,ioos:station:USF.COMPS:C10:1,2019-05-10T17:35:00,27.1690,-82.9260,3.0,4.59,142.71,5.29,'11111222,11111222,11111222' 
COMPS,ioos:station:USF.COMPS:C10:1,2019-05-10T18:35:00,27.1690,-82.9260,3.0,3.53,152.64,4.17,'11111222,11111222,11111222' 
COMPS,ioos:station:USF.COMPS:C10:1,2019-05-10T19:35:00,27.1690,-82.9260,3.0,2.58,187.49,3.49,'11111222,11111222,11111222' 
COMPS,ioos:station:USF.COMPS:C10:1,2019-05-10T20:35:00,27.1690,-82.9260,3.0,3.09,228.54,3.76,'11111222,11111222,11111222' 
COMPS,ioos:station:USF.COMPS:C10:1,2019-05-10T21:35:00,27.1690,-82.9260,3.0,3.12,285.57,3.88,'11111222,11111222,11111222' 
COMPS,ioos:station:USF.COMPS:C10:1,2019-05-10T22:35:00,27.1690,-82.9260,3.0,3.33,347.66,3.9,'11111222,11111222,11111222' 
COMPS,ioos:station:USF.COMPS:C10:1,2019-05-10T23:35:00,27.1690,-82.9260,3.0,4.7,51.16,6.34,'11111222,11111222,11111222' 
COMPS,ioos:station:USF.COMPS:C10:1,2019-05-11T00:35:00,27.1690,-82.9260,3.0,3.01,16.9,3.88,'11111222,11111222,11111222' 
COMPS,ioos:station:USF.COMPS:C10:1,2019-05-11T02:35:00,27.1690,-82.9260,3.0,4.68,61.9,5.72,'11111222,11111222,11111222' 
COMPS,ioos:station:USF.COMPS:C10:1,2019-05-11T03:35:00,27.1690,-82.9260,3.0,6.54,56.14,7.96,'11111222,11111222,11111222' 
COMPS,ioos:station:USF.COMPS:C10:1,2019-05-11T05:35:00,27.1690,-82.9260,3.0,8.17,108.85,9.83,'11111222,11111222,11111222' 
COMPS,ioos:station:USF.COMPS:C10:1,2019-05-11T06:35:00,27.1690,-82.9260,3.0,7.52,135.21,9.12,'11111222,11111222,11111222' 
COMPS,ioos:station:USF.COMPS:C10:1,2019-05-11T07:35:00,27.1690,-82.9260,3.0,4.93,159.23,6.07,'11111222,11111222,11111222' 
COMPS,ioos:station:USF.COMPS:C10:1,2019-05-11T08:35:00,27.1690,-82.9260,3.0,3.74,123.05,5.06,'11111222,11111222,11111222' 
COMPS,ioos:station:USF.COMPS:C10:1,2019-05-11T09:35:00,27.1690,-82.9260,3.0,5.15,107.84,6.5,'11111222,11111222,11111222' 
COMPS,ioos:station:USF.COMPS:C10:1,2019-05-11T10:35:00,27.1690,-82.9260,3.0,5.96,117.43,7.29,'11111222,11111222,11111222' 
COMPS,ioos:station:USF.COMPS:C10:1,2019-05-11T11:35:00,27.1690,-82.9260,3.0,5.93,121.36,7.14,'11111222,11111222,11111222' 
COMPS,ioos:station:USF.COMPS:C10:1,2019-05-11T12:35:00,27.1690,-82.9260,3.0,5.64,131.23,6.82,'11111222,11111222,11111222' 
COMPS,ioos:station:USF.COMPS:C10:1,2019-05-13T13:35:00,27.1690,-82.9260,3.0,5.43,208.42,6.95,'11111222,11111222,11111222' 
COMPS,ioos:station:USF.COMPS:C10:1,2019-05-13T14:35:00,27.1690,-82.9260,3.0,5.43,203.82,6.81,'11111222,11111222,11111222' 
COMPS,ioos:station:USF.COMPS:C10:1,2019-05-13T15:35:00,27.1690,-82.9260,3.0,6.54,198.01,7.99,'11111222,11111222,11111222' 
COMPS,ioos:station:USF.COMPS:C10:1,2019-05-13T16:35:00,27.1690,-82.9260,3.0,7.27,212.57,8.64,'11111222,11111222,11111222' 
COMPS,ioos:station:USF.COMPS:C10:1,2019-05-13T17:35:00,27.1690,-82.9260,3.0,6.41,212.31,7.52,'11111222,11111222,11111222' 
COMPS,ioos:station:USF.COMPS:C10:1,2019-05-13T18:35:00,27.1690,-82.9260,3.0,5.62,242.74,7.24,'11111222,11111222,11111222' 
COMPS,ioos:station:USF.COMPS:C10:1,2019-05-13T19:35:00,27.1690,-82.9260,3.0,9.69,327.37,12.86,'11111222,11111222,11111222' 
COMPS,ioos:station:USF.COMPS:C10:1,2019-05-13T20:35:00,27.1690,-82.9260,3.0,1.92,55.37,5.28,'11111222,11111222,11111222' 
COMPS,ioos:station:USF.COMPS:C10:1,2019-05-13T21:35:00,27.1690,-82.9260,3.0,4.66,259.22,6.28,'11111222,11111222,11111222' 
COMPS,ioos:station:USF.COMPS:C10:1,2019-05-13T22:35:00,27.1690,-82.9260,3.0,8.76,197.43,11.38,'11111222,11111222,11111222' 
COMPS,ioos:station:USF.COMPS:C10:1,2019-05-13T23:35:00,27.1690,-82.9260,3.0,8.97,233.88,11.13,'11111222,11111222,11111222' 
COMPS,ioos:station:USF.COMPS:C10:1,2019-05-14T00:35:00,27.1690,-82.9260,3.0,5.23,260.53,6.54,'11111222,11111222,11111222' 
COMPS,ioos:station:USF.COMPS:C10:1,2019-05-14T01:35:00,27.1690,-82.9260,3.0,4.67,272.59,5.99,'11111222,11111222,11111222' 
COMPS,ioos:station:USF.COMPS:C10:1,2019-05-14T02:35:00,27.1690,-82.9260,3.0,2.45,353.57,3.23,'11111222,11111222,11111222' 
COMPS,ioos:station:USF.COMPS:C10:1,2019-05-14T03:35:00,27.1690,-82.9260,3.0,1.17,15.53,2.06,'11111222,11111222,11111222' 
COMPS,ioos:station:USF.COMPS:C10:1,2019-05-14T04:35:00,27.1690,-82.9260,3.0,0.5,64.58,1.15,'11111222,11111222,11111222' 
COMPS,ioos:station:USF.COMPS:C10:1,2019-05-14T05:35:00,27.1690,-82.9260,3.0,0.98,314.74,2.06,'11111222,11111222,11111222' 
COMPS,ioos:station:USF.COMPS:C10:1,2019-05-14T06:35:00,27.1690,-82.9260,3.0,2.44,311.72,3.66,'11111222,11111222,11111222' 
COMPS,ioos:station:USF.COMPS:C10:1,2019-05-14T07:35:00,27.1690,-82.9260,3.0,3.5,317.89,5.16,'11111222,11111222,11111222' 
COMPS,ioos:station:USF.COMPS:C10:1,2019-05-14T08:35:00,27.1690,-82.9260,3.0,3.63,321.17,4.41,'11111222,11111222,11111222' 
COMPS,ioos:station:USF.COMPS:C10:1,2019-05-14T09:35:00,27.1690,-82.9260,3.0,3.2,301.98,4.14,'11111222,11111222,11111222' 
COMPS,ioos:station:USF.COMPS:C10:1,2019-05-14T10:35:00,27.1690,-82.9260,3.0,1.41,316.06,2.19,'11111222,11111222,11111222' 
COMPS,ioos:station:USF.COMPS:C10:1,2019-05-14T11:35:00,27.1690,-82.9260,3.0,0.98,305.34,1.59,'11111222,11111222,11111222' 
COMPS,ioos:station:USF.COMPS:C10:1,2019-05-14T12:35:00,27.1690,-82.9260,3.0,1.56,215.15,2.27,'11111222,11111222,11111222' 
COMPS,ioos:station:USF.COMPS:C10:1,2019-05-14T13:35:00,27.1690,-82.9260,3.0,3.26,230.38,4.09,'11111222,11111222,11111222' 
COMPS,ioos:station:USF.COMPS:C10:1,2019-05-14T14:35:00,27.1690,-82.9260,3.0,4.06,215.53,5.51,'11111222,11111222,11111222' 
COMPS,ioos:station:USF.COMPS:C10:1,2019-05-14T15:35:00,27.1690,-82.9260,3.0,7.0,258.51,8.46,'11111222,11111222,11111222' 
COMPS,ioos:station:USF.COMPS:C10:1,2019-05-14T16:35:00,27.1690,-82.9260,3.0,7.79,267.23,9.71,'11111222,11111222,11111222' 
COMPS,ioos:station:USF.COMPS:C10:1,2019-05-14T17:35:00,27.1690,-82.9260,3.0,9.8,289.56,12.09,'11111222,11111222,11111222' 
COMPS,ioos:station:USF.COMPS:C10:1,2019-05-14T18:35:00,27.1690,-82.9260,3.0,8.23,296.53,10.44,'11111222,11111222,11111222' 
COMPS,ioos:station:USF.COMPS:C10:1,2019-05-14T19:35:00,27.1690,-82.9260,3.0,9.05,320.48,11.74,'11111222,11111222,11111222' 
COMPS,ioos:station:USF.COMPS:C10:1,2019-05-14T20:35:00,27.1690,-82.9260,3.0,8.61,315.74,10.51,'11111222,11111222,11111222' 
COMPS,ioos:station:USF.COMPS:C10:1,2019-05-14T21:35:00,27.1690,-82.9260,3.0,8.02,306.65,9.8,'11111222,11111222,11111222' 
COMPS,ioos:station:USF.COMPS:C10:1,2019-05-14T22:35:00,27.1690,-82.9260,3.0,7.43,303.68,9.15,'11111222,11111222,11111222' 
COMPS,ioos:station:USF.COMPS:C10:1,2019-05-14T23:35:00,27.1690,-82.9260,3.0,6.35,333.23,8.26,'11111222,11111222,11111222' 
COMPS,ioos:station:USF.COMPS:C10:1,2019-05-15T00:35:00,27.1690,-82.9260,3.0,5.0,325.84,6.39,'11111222,11111222,11111222' 
COMPS,ioos:station:USF.COMPS:C10:1,2019-05-15T01:35:00,27.1690,-82.9260,3.0,6.53,321.99,8.87,'11111222,11111222,11111222' 
COMPS,ioos:station:USF.COMPS:C10:1,2019-05-15T02:35:00,27.1690,-82.9260,3.0,6.19,330.06,7.39,'11111222,11111222,11111222' 
COMPS,ioos:station:USF.COMPS:C10:1,2019-05-15T03:35:00,27.1690,-82.9260,3.0,2.8,359.96,4.64,'11111222,11144222,11111222' 
COMPS,ioos:station:USF.COMPS:C10:1,2019-05-15T04:35:00,27.1690,-82.9260,3.0,3.23,340.26,4.64,'11111222,11111222,11111222' 
COMPS,ioos:station:USF.COMPS:C10:1,2019-05-15T05:35:00,27.1690,-82.9260,3.0,2.47,1.95,3.45,'11111222,11111222,11111222' 
COMPS,ioos:station:USF.COMPS:C10:1,2019-05-15T06:35:00,27.1690,-82.9260,3.0,2.36,337.33,3.5,'11111222,11111222,11111222' 
COMPS,ioos:station:USF.COMPS:C10:1,2019-05-15T08:35:00,27.1690,-82.9260,3.0,2.34,306.39,3.39,'11111222,11111222,11111222' 
COMPS,ioos:station:USF.COMPS:C10:1,2019-05-15T09:35:00,27.1690,-82.9260,3.0,2.54,314.22,3.31,'11111222,11111222,11111222' 
COMPS,ioos:station:USF.COMPS:C10:1,2019-05-15T10:35:00,27.1690,-82.9260,3.0,1.96,320.04,2.71,'11111222,11111222,11111222' 
COMPS,ioos:station:USF.COMPS:C10:1,2019-05-15T11:35:00,27.1690,-82.9260,3.0,3.06,344.91,3.98,'11111222,11111222,11111222' 
COMPS,ioos:station:USF.COMPS:C10:1,2019-05-15T12:35:00,27.1690,-82.9260,3.0,2.9,48.95,4.11,'11111222,11111222,11111222' 
COMPS,ioos:station:USF.COMPS:C10:1,2019-05-15T13:35:00,27.1690,-82.9260,3.0,1.63,31.37,2.7,'11111222,11111222,11111222' 
COMPS,ioos:station:USF.COMPS:C10:1,2019-05-15T14:35:00,27.1690,-82.9260,3.0,1.7,357.19,2.82,'11111222,11111222,11111222' 
COMPS,ioos:station:USF.COMPS:C10:1,2019-05-15T15:35:00,27.1690,-82.9260,3.0,2.1,349.35,2.91,'11111222,11111222,11111222' 
COMPS,ioos:station:USF.COMPS:C10:1,2019-05-15T19:35:00,27.1690,-82.9260,3.0,1.73,318.76,3.13,'11111222,11111222,11111222' 
COMPS,ioos:station:USF.COMPS:C10:1,2019-05-15T20:35:00,27.1690,-82.9260,3.0,2.92,325.84,4.3,'11111222,11111222,11111222' 
COMPS,ioos:station:USF.COMPS:C10:1,2019-05-15T21:35:00,27.1690,-82.9260,3.0,2.85,304.26,4.11,'11111222,11111222,11111222' 
COMPS,ioos:station:USF.COMPS:C10:1,2019-05-15T22:35:00,27.1690,-82.9260,3.0,3.96,308.05,5.26,'11111222,11111222,11111222' 
COMPS,ioos:station:USF.COMPS:C10:1,2019-05-15T23:35:00,27.1690,-82.9260,3.0,4.22,314.76,5.06,'11111222,11111222,11111222' 
COMPS,ioos:station:USF.COMPS:C10:1,2019-05-16T00:35:00,27.1690,-82.9260,3.0,4.96,332.61,6.27,'11111222,11111222,11111222' 
COMPS,ioos:station:USF.COMPS:C10:1,2019-05-16T01:35:00,27.1690,-82.9260,3.0,5.73,333.37,7.08,'11111222,11111222,11111222' 
COMPS,ioos:station:USF.COMPS:C10:1,2019-05-16T02:35:00,27.1690,-82.9260,3.0,4.83,343.92,5.9,'11111222,11111222,11111222' 
COMPS,ioos:station:USF.COMPS:C10:1,2019-05-16T03:35:00,27.1690,-82.9260,3.0,4.82,3.91,5.98,'11111222,11111222,11111222' 
COMPS,ioos:station:USF.COMPS:C10:1,2019-05-16T04:35:00,27.1690,-82.9260,3.0,5.62,33.36,7.01,'11111222,11111222,11111222' 
COMPS,ioos:station:USF.COMPS:C10:1,2019-05-16T06:35:00,27.1690,-82.9260,3.0,3.97,116.06,5.09,'11111222,11111222,11111222' 
COMPS,ioos:station:USF.COMPS:C10:1,2019-05-16T07:35:00,27.1690,-82.9260,3.0,3.86,123.3,4.73,'11111222,11111222,11111222' 
COMPS,ioos:station:USF.COMPS:C10:1,2019-05-16T10:35:00,27.1690,-82.9260,3.0,5.87,81.63,7.33,'11111222,11111222,11111222' 
COMPS,ioos:station:USF.COMPS:C10:1,2019-05-16T11:35:00,27.1690,-82.9260,3.0,6.12,90.69,7.51,'11111222,11111222,11111222' 
COMPS,ioos:station:USF.COMPS:C10:1,2019-05-16T12:35:00,27.1690,-82.9260,3.0,6.31,98.23,7.77,'11111222,11111222,11111222' 
COMPS,ioos:station:USF.COMPS:C10:1,2019-05-16T14:35:00,27.1690,-82.9260,3.0,6.63,101.06,8.37,'11111222,11111222,11111222' 
COMPS,ioos:station:USF.COMPS:C10:1,2019-05-16T15:35:00,27.1690,-82.9260,3.0,6.06,108.29,7.31,'11111222,11111222,11111222' 
COMPS,ioos:station:USF.COMPS:C10:1,2019-05-16T16:35:00,27.1690,-82.9260,3.0,4.68,119.38,6.1,'11111222,11111222,11111222' 
COMPS,ioos:station:USF.COMPS:C10:1,2019-05-16T17:35:00,27.1690,-82.9260,3.0,3.44,147.92,4.58,'11111222,11111222,11111222' 
COMPS,ioos:station:USF.COMPS:C10:1,2019-05-16T18:35:00,27.1690,-82.9260,3.0,2.91,181.38,3.5,'11111222,11111222,11111222' 
COMPS,ioos:station:USF.COMPS:C10:1,2019-05-16T19:35:00,27.1690,-82.9260,3.0,1.23,198.16,2.3,'11111222,11111222,11111222' 
COMPS,ioos:station:USF.COMPS:C10:1,2019-05-16T20:35:00,27.1690,-82.9260,3.0,1.34,309.58,2.1,'11111222,11111222,11111222' 
COMPS,ioos:station:USF.COMPS:C10:1,2019-05-16T21:35:00,27.1690,-82.9260,3.0,2.52,320.79,3.76,'11111222,11111222,11111222' 
COMPS,ioos:station:USF.COMPS:C10:1,2019-05-16T22:35:00,27.1690,-82.9260,3.0,2.08,317.96,2.86,'11111222,11111222,11111222' 
COMPS,ioos:station:USF.COMPS:C10:1,2019-05-16T23:35:00,27.1690,-82.9260,3.0,4.12,337.07,5.27,'11111222,11111222,11111222' 
COMPS,ioos:station:USF.COMPS:C10:1,2019-05-17T00:35:00,27.1690,-82.9260,3.0,4.78,355.37,5.68,'11111222,11111222,11111222' 
COMPS,ioos:station:USF.COMPS:C10:1,2019-05-17T01:35:00,27.1690,-82.9260,3.0,4.13,17.88,5.34,'11111222,11111222,11111222' 
COMPS,ioos:station:USF.COMPS:C10:1,2019-05-17T03:35:00,27.1690,-82.9260,3.0,3.1,174.0,4.41,'11111222,11111222,11111222' 
COMPS,ioos:station:USF.COMPS:C10:1,2019-05-17T04:35:00,27.1690,-82.9260,3.0,7.83,125.93,9.55,'11111222,11111222,11111222' 
COMPS,ioos:station:USF.COMPS:C10:1,2019-05-17T05:35:00,27.1690,-82.9260,3.0,7.65,126.87,9.11,'11111222,11111222,11111222' 
COMPS,ioos:station:USF.COMPS:C10:1,2019-05-17T06:35:00,27.1690,-82.9260,3.0,7.19,134.51,8.75,'11111222,11111222,11111222' 
COMPS,ioos:station:USF.COMPS:C10:1,2019-05-17T07:35:00,27.1690,-82.9260,3.0,6.96,124.46,8.28,'11111222,11111222,11111222' 
COMPS,ioos:station:USF.COMPS:C10:1,2019-05-17T08:35:00,27.1690,-82.9260,3.0,6.74,127.77,7.99,'11111222,11111222,11111222' 
COMPS,ioos:station:USF.COMPS:C10:1,2019-05-17T09:35:00,27.1690,-82.9260,3.0,6.76,130.3,8.05,'11111222,11111222,11111222' 
COMPS,ioos:station:USF.COMPS:C10:1,2019-05-17T10:35:00,27.1690,-82.9260,3.0,6.79,123.14,8.09,'11111222,11111222,11111222' 
COMPS,ioos:station:USF.COMPS:C10:1,2019-05-17T11:35:00,27.1690,-82.9260,3.0,6.48,121.78,7.67,'11111222,11111222,11111222' 
COMPS,ioos:station:USF.COMPS:C10:1,2019-05-17T12:35:00,27.1690,-82.9260,3.0,6.96,124.87,8.22,'11111222,11111222,11111222' 
COMPS,ioos:station:USF.COMPS:C10:1,2019-05-17T13:35:00,27.1690,-82.9260,3.0,6.19,124.2,7.6,'11111222,11111222,11111222' 
COMPS,ioos:station:USF.COMPS:C10:1,2019-05-17T14:35:00,27.1690,-82.9260,3.0,5.66,125.03,7.02,'11111222,11111222,11111222' 
COMPS,ioos:station:USF.COMPS:C10:1,2019-05-17T15:35:00,27.1690,-82.9260,3.0,3.95,117.68,5.22,'11111222,11111222,11111222' 
COMPS,ioos:station:USF.COMPS:C10:1,2019-05-17T16:35:00,27.1690,-82.9260,3.0,3.74,102.48,4.72,'11111222,11111222,11111222' 
COMPS,ioos:station:USF.COMPS:C10:1,2019-05-17T17:35:00,27.1690,-82.9260,3.0,1.99,85.83,2.63,'11111222,11111222,11111222' 
COMPS,ioos:station:USF.COMPS:C10:1,2019-05-17T18:35:00,27.1690,-82.9260,3.0,0.43,125.24,1.1,'11111222,11111222,11111222' 
COMPS,ioos:station:USF.COMPS:C10:1,2019-05-17T19:35:00,27.1690,-82.9260,3.0,3.2,343.27,4.33,'11111222,11111222,11111222' 
COMPS,ioos:station:USF.COMPS:C10:1,2019-05-17T20:35:00,27.1690,-82.9260,3.0,3.54,337.44,4.43,'11111222,11111222,11111222' 
COMPS,ioos:station:USF.COMPS:C10:1,2019-05-17T21:35:00,27.1690,-82.9260,3.0,2.76,324.4,3.34,'11111222,11111222,11111222' 
COMPS,ioos:station:USF.COMPS:C10:1,2019-05-17T22:35:00,27.1690,-82.9260,3.0,2.44,337.8,3.11,'11111222,11111222,11111222' 
COMPS,ioos:station:USF.COMPS:C10:1,2019-05-17T23:35:00,27.1690,-82.9260,3.0,4.19,340.03,4.98,'11111222,11111222,11111222' 
COMPS,ioos:station:USF.COMPS:C10:1,2019-05-18T00:35:00,27.1690,-82.9260,3.0,3.49,326.58,4.33,'11111222,11111222,11111222' 
COMPS,ioos:station:USF.COMPS:C10:1,2019-05-18T01:35:00,27.1690,-82.9260,3.0,4.51,357.74,5.56,'11111222,11111222,11111222' 
COMPS,ioos:station:USF.COMPS:C10:1,2019-05-18T02:35:00,27.1690,-82.9260,3.0,4.77,27.29,5.86,'11111222,11111222,11111222' 
COMPS,ioos:station:USF.COMPS:C10:1,2019-05-18T03:35:00,27.1690,-82.9260,3.0,9.36,126.14,11.06,'11111222,11111222,11111222' 
COMPS,ioos:station:USF.COMPS:C10:1,2019-05-18T04:35:00,27.1690,-82.9260,3.0,7.71,130.13,9.0,'11111222,11111222,11111222' 
COMPS,ioos:station:USF.COMPS:C10:1,2019-05-18T05:35:00,27.1690,-82.9260,3.0,7.81,134.57,9.32,'11111222,11111222,11111222' 
COMPS,ioos:station:USF.COMPS:C10:1,2019-05-18T06:35:00,27.1690,-82.9260,3.0,7.05,139.33,8.5,'11111222,11111222,11111222' 
COMPS,ioos:station:USF.COMPS:C10:1,2019-05-18T07:35:00,27.1690,-82.9260,3.0,6.39,138.98,7.51,'11111222,11111222,11111222' 
COMPS,ioos:station:USF.COMPS:C10:1,2019-05-18T08:35:00,27.1690,-82.9260,3.0,5.66,147.78,7.18,'11111222,11111222,11111222' 
COMPS,ioos:station:USF.COMPS:C10:1,2019-05-18T09:35:00,27.1690,-82.9260,3.0,5.15,141.51,6.43,'11111222,11111222,11111222' 
COMPS,ioos:station:USF.COMPS:C10:1,2019-05-18T10:35:00,27.1690,-82.9260,3.0,5.56,121.05,7.04,'11111222,11111222,11111222' 
COMPS,ioos:station:USF.COMPS:C10:1,2019-05-18T11:35:00,27.1690,-82.9260,3.0,5.11,113.1,6.25,'11111222,11111222,11111222' 
COMPS,ioos:station:USF.COMPS:C10:1,2019-05-18T12:35:00,27.1690,-82.9260,3.0,4.99,122.84,6.17,'11111222,11111222,11111222' 
COMPS,ioos:station:USF.COMPS:C10:1,2019-05-18T14:35:00,27.1690,-82.9260,3.0,4.74,123.8,5.65,'11111222,11111222,11111222' 
COMPS,ioos:station:USF.COMPS:C10:1,2019-05-18T15:35:00,27.1690,-82.9260,3.0,4.02,134.03,5.19,'11111222,11111222,11111222' 
COMPS,ioos:station:USF.COMPS:C10:1,2019-05-18T16:35:00,27.1690,-82.9260,3.0,3.24,124.92,3.96,'11111222,11111222,11111222' 
COMPS,ioos:station:USF.COMPS:C10:1,2019-05-18T17:35:00,27.1690,-82.9260,3.0,1.32,107.67,2.23,'11111222,11111222,11111222' 
COMPS,ioos:station:USF.COMPS:C10:1,2019-05-18T18:35:00,27.1690,-82.9260,3.0,0.47,266.36,1.07,'11111222,11111222,11111222' 
COMPS,ioos:station:USF.COMPS:C10:1,2019-05-18T19:35:00,27.1690,-82.9260,3.0,1.92,347.05,2.85,'11111222,11111222,11111222' 
COMPS,ioos:station:USF.COMPS:C10:1,2019-05-18T20:35:00,27.1690,-82.9260,3.0,2.61,332.43,3.71,'11111222,11111222,11111222' 
COMPS,ioos:station:USF.COMPS:C10:1,2019-05-18T21:35:00,27.1690,-82.9260,3.0,2.68,314.48,3.39,'11111222,11111222,11111222' 
COMPS,ioos:station:USF.COMPS:C10:1,2019-05-18T22:35:00,27.1690,-82.9260,3.0,3.97,324.25,4.94,'11111222,11111222,11111222' 
COMPS,ioos:station:USF.COMPS:C10:1,2019-05-18T23:35:00,27.1690,-82.9260,3.0,4.32,335.45,5.23,'11111222,11111222,11111222' 
COMPS,ioos:station:USF.COMPS:C10:1,2019-05-19T00:35:00,27.1690,-82.9260,3.0,4.52,336.45,5.43,'11111222,11111222,11111222' 
COMPS,ioos:station:USF.COMPS:C10:1,2019-05-19T01:35:00,27.1690,-82.9260,3.0,4.79,350.52,5.8,'11111222,11111222,11111222' 
COMPS,ioos:station:USF.COMPS:C10:1,2019-05-19T02:35:00,27.1690,-82.9260,3.0,4.31,353.11,5.07,'11111222,11111222,11111222' 
COMPS,ioos:station:USF.COMPS:C10:1,2019-05-19T04:35:00,27.1690,-82.9260,3.0,10.13,111.48,12.16,'11111222,11111222,11111222' 
COMPS,ioos:station:USF.COMPS:C10:1,2019-05-19T05:35:00,27.1690,-82.9260,3.0,8.32,110.98,9.94,'11111222,11111222,11111222' 
COMPS,ioos:station:USF.COMPS:C10:1,2019-05-19T06:35:00,27.1690,-82.9260,3.0,7.59,121.39,9.37,'11111222,11111222,11111222' 
COMPS,ioos:station:USF.COMPS:C10:1,2019-05-19T07:35:00,27.1690,-82.9260,3.0,7.49,128.59,8.7,'11111222,11111222,11111222' 
COMPS,ioos:station:USF.COMPS:C10:1,2019-05-19T08:35:00,27.1690,-82.9260,3.0,7.36,134.35,8.85,'11111222,11111222,11111222' 
COMPS,ioos:station:USF.COMPS:C10:1,2019-05-19T09:35:00,27.1690,-82.9260,3.0,7.04,135.46,8.51,'11111222,11111222,11111222' 
COMPS,ioos:station:USF.COMPS:C10:1,2019-05-19T10:35:00,27.1690,-82.9260,3.0,6.25,135.53,7.34,'11111222,11111222,11111222' 
COMPS,ioos:station:USF.COMPS:C10:1,2019-05-19T11:35:00,27.1690,-82.9260,3.0,6.37,120.24,7.84,'11111222,11111222,11111222' 
COMPS,ioos:station:USF.COMPS:C10:1,2019-05-19T12:35:00,27.1690,-82.9260,3.0,6.61,122.26,7.83,'11111222,11111222,11111222' 
COMPS,ioos:station:USF.COMPS:C10:1,2019-05-19T13:35:00,27.1690,-82.9260,3.0,6.23,134.08,7.33,'11111222,11111222,11111222' 
COMPS,ioos:station:USF.COMPS:C10:1,2019-05-19T14:35:00,27.1690,-82.9260,3.0,5.31,129.89,6.35,'11111222,11111222,11111222' 
COMPS,ioos:station:USF.COMPS:C10:1,2019-05-19T15:35:00,27.1690,-82.9260,3.0,4.5,135.27,5.71,'11111222,11111222,11111222' 
COMPS,ioos:station:USF.COMPS:C10:1,2019-05-19T16:35:00,27.1690,-82.9260,3.0,4.3,137.38,5.22,'11111222,11111222,11111222' 
COMPS,ioos:station:USF.COMPS:C10:1,2019-05-19T17:35:00,27.1690,-82.9260,3.0,2.99,149.6,3.74,'11111222,11111222,11111222' 
COMPS,ioos:station:USF.COMPS:C10:1,2019-05-19T18:35:00,27.1690,-82.9260,3.0,2.4,203.12,3.03,'11111222,11111222,11111222' 
COMPS,ioos:station:USF.COMPS:C10:1,2019-05-19T19:35:00,27.1690,-82.9260,3.0,2.0,205.69,2.72,'11111222,11111222,11111222' 
COMPS,ioos:station:USF.COMPS:C10:1,2019-05-19T20:35:00,27.1690,-82.9260,3.0,2.64,249.37,3.23,'11111222,11111222,11111222' 
COMPS,ioos:station:USF.COMPS:C10:1,2019-05-19T21:35:00,27.1690,-82.9260,3.0,2.03,278.72,2.78,'11111222,11111222,11111222' 
COMPS,ioos:station:USF.COMPS:C10:1,2019-05-19T22:35:00,27.1690,-82.9260,3.0,3.43,315.82,4.24,'11111222,11111222,11111222' 
COMPS,ioos:station:USF.COMPS:C10:1,2019-05-19T23:35:00,27.1690,-82.9260,3.0,4.25,320.99,5.15,'11111222,11111222,11111222' 
COMPS,ioos:station:USF.COMPS:C10:1,2019-05-20T00:35:00,27.1690,-82.9260,3.0,5.2,323.11,6.24,'11111222,11111222,11111222' 
COMPS,ioos:station:USF.COMPS:C10:1,2019-05-20T01:35:00,27.1690,-82.9260,3.0,5.29,326.6,6.22,'11111222,11111222,11111222' 
COMPS,ioos:station:USF.COMPS:C10:1,2019-05-20T02:35:00,27.1690,-82.9260,3.0,5.58,340.0,6.62,'11111222,11111222,11111222' 
COMPS,ioos:station:USF.COMPS:C10:1,2019-05-20T03:35:00,27.1690,-82.9260,3.0,4.81,355.13,5.92,'11111222,11111222,11111222' 
COMPS,ioos:station:USF.COMPS:C10:1,2019-05-20T05:35:00,27.1690,-82.9260,3.0,2.95,39.69,3.58,'11111222,11111222,11111222' 
COMPS,ioos:station:USF.COMPS:C10:1,2019-05-20T08:35:00,27.1690,-82.9260,3.0,3.02,128.05,3.77,'11111222,11111222,11111222' 
COMPS,ioos:station:USF.COMPS:C10:1,2019-05-20T09:35:00,27.1690,-82.9260,3.0,3.59,97.64,4.52,'11111222,11111222,11111222' 
COMPS,ioos:station:USF.COMPS:C10:1,2019-05-20T10:35:00,27.1690,-82.9260,3.0,3.55,91.68,4.36,'11111222,11111222,11111222' 
COMPS,ioos:station:USF.COMPS:C10:1,2019-05-20T11:35:00,27.1690,-82.9260,3.0,2.8,110.5,3.47,'11111222,11111222,11111222' 
COMPS,ioos:station:USF.COMPS:C10:1,2019-05-20T12:35:00,27.1690,-82.9260,3.0,2.42,90.69,3.26,'11111222,11111222,11111222' 
COMPS,ioos:station:USF.COMPS:C10:1,2019-05-20T13:35:00,27.1690,-82.9260,3.0,2.76,98.11,3.65,'11111222,11111222,11111222' 
COMPS,ioos:station:USF.COMPS:C10:1,2019-05-20T14:35:00,27.1690,-82.9260,3.0,2.05,100.19,2.68,'11111222,11111222,11111222' 
COMPS,ioos:station:USF.COMPS:C10:1,2019-05-20T15:35:00,27.1690,-82.9260,3.0,1.35,92.7,2.01,'11111222,11111222,11111222' 
COMPS,ioos:station:USF.COMPS:C10:1,2019-05-20T16:35:00,27.1690,-82.9260,3.0,1.16,83.06,1.75,'11111222,11111222,11111222' 
COMPS,ioos:station:USF.COMPS:C10:1,2019-05-20T17:35:00,27.1690,-82.9260,3.0,1.41,305.28,2.13,'11111222,11111222,11111222' 
COMPS,ioos:station:USF.COMPS:C10:1,2019-05-20T18:35:00,27.1690,-82.9260,3.0,1.58,315.02,2.38,'11111222,11111222,11111222' 
COMPS,ioos:station:USF.COMPS:C10:1,2019-05-20T19:35:00,27.1690,-82.9260,3.0,3.59,315.36,4.51,'11111222,11111222,11111222' 
COMPS,ioos:station:USF.COMPS:C10:1,2019-05-20T20:35:00,27.1690,-82.9260,3.0,3.77,315.11,4.75,'11111222,11111222,11111222' 
COMPS,ioos:station:USF.COMPS:C10:1,2019-05-20T21:35:00,27.1690,-82.9260,3.0,4.02,307.95,4.89,'11111222,11111222,11111222' 
COMPS,ioos:station:USF.COMPS:C10:1,2019-05-20T22:35:00,27.1690,-82.9260,3.0,4.02,309.0,4.88,'11111222,11111222,11111222' 
COMPS,ioos:station:USF.COMPS:C10:1,2019-05-20T23:35:00,27.1690,-82.9260,3.0,3.93,321.4,4.7,'11111222,11111222,11111222' 
COMPS,ioos:station:USF.COMPS:C10:1,2019-05-21T00:35:00,27.1690,-82.9260,3.0,4.91,318.19,5.96,'11111222,11111222,11111222' 
COMPS,ioos:station:USF.COMPS:C10:1,2019-05-21T01:35:00,27.1690,-82.9260,3.0,5.11,342.13,6.16,'11111222,11111222,11111222' 
COMPS,ioos:station:USF.COMPS:C10:1,2019-05-21T02:35:00,27.1690,-82.9260,3.0,5.02,351.16,5.99,'11111222,11111222,11111222' 
COMPS,ioos:station:USF.COMPS:C10:1,2019-05-21T03:35:00,27.1690,-82.9260,3.0,4.28,47.18,5.29,'11111222,11111222,11111222' 
COMPS,ioos:station:USF.COMPS:C10:1,2019-05-21T04:35:00,27.1690,-82.9260,3.0,3.6,101.86,4.46,'11111222,11111222,11111222' 
COMPS,ioos:station:USF.COMPS:C10:1,2019-05-21T05:35:00,27.1690,-82.9260,3.0,5.62,150.82,6.7,'11111222,11111222,11111222' 
COMPS,ioos:station:USF.COMPS:C10:1,2019-05-21T06:35:00,27.1690,-82.9260,3.0,4.68,152.66,5.67,'11111222,11111222,11111222' 
COMPS,ioos:station:USF.COMPS:C10:1,2019-05-21T07:35:00,27.1690,-82.9260,3.0,4.67,155.44,5.67,'11111222,11111222,11111222' 
COMPS,ioos:station:USF.COMPS:C10:1,2019-05-21T08:35:00,27.1690,-82.9260,3.0,4.67,137.33,5.55,'11111222,11111222,11111222' 
COMPS,ioos:station:USF.COMPS:C10:1,2019-05-21T09:35:00,27.1690,-82.9260,3.0,4.4,148.07,5.13,'11111222,11111222,11111222' 